Home > Time Zones > World Clock > Weather > Laos > Pakse > Past weeks

Flag for Laos Weather past 2 weeks in Pakse, Laos

Now
86 °F

Clear.


Feels Like: 91 °F
Forecast: 81 / 99 °F
Wind: 2 mph from South

Location: Ubon Ratchathani Airport

Current Time: May 31, 2015 at 3:56:20 AM

Latest Report: May 31, 2015 at 1:00 AM


Visibility: 6 mi

Pressure: 29.74 "Hg

Humidity: 59%

Dew point: 70 °F

Location of PakseLocation

Historic Weather in Pakse — Graph

°F

Pakse temperature yesterday

Maximum temperature yesterday: 102 °F (at 2:00 PM)
Minimum temperature yesterday: 82 °F (at 3:00 AM)
Average temperature yesterday: 91 °F

Past Weeks' High & Low Weather Summary

 TemperatureHumidityPressure
High102 °F (May 30, 2:00 PM)100% (May 19, 2:00 AM)29.86 "Hg (May 19, 2:00 AM)
Low75 °F (May 18, 10:00 PM)12% (May 29, 10:00 AM)29.59 "Hg (May 28, 5:00 PM)
Average89 °F60%29.73 "Hg
* Reported May 16 1:00 AM — May 31 1:00 AM, Pakse, Weather by CustomWeather, © 2015

Note: Actual official high and low records may vary slightly from our data, if they occured in-between our weather recording intervals... More about our weather records

Advertising

Pakse weather history for previous 24 hours

 ConditionsComfort  
Time TempWeatherWind HumidityBarometerVisibility
1:00 AM
Sun, May 31
86 °FClear.2 mph59%29.74 "Hg6 mi
12:00 AM86 °FPassing clouds.2 mph62%29.74 "Hg6 mi
11:00 PM
Sat, May 30
88 °FPassing clouds.3 mph55%29.74 "Hg5 mi
10:00 PM86 °FPassing clouds.No wind62%29.74 "Hg5 mi
9:00 PM88 °FPassing clouds.No wind59%29.71 "Hg5 mi
8:00 PM90 °FPassing clouds.2 mph55%29.68 "Hg5 mi
7:00 PM93 °FPassing clouds.3 mph53%29.65 "Hg6 mi
6:00 PM97 °FPartly sunny.6 mph42%29.62 "Hg6 mi
5:30 PM97 °FPartly sunny.7 mph42%29.62 "Hg6 mi
5:00 PM99 °FPartly sunny.8 mph42%29.62 "Hg6 mi
4:00 PM100 °FBroken clouds.6 mph40%29.62 "Hg6 mi
3:00 PM100 °FBroken clouds.3 mph37%29.65 "Hg6 mi
2:00 PM102 °FBroken clouds.6 mph37%29.68 "Hg6 mi
1:00 PM100 °FBroken clouds.6 mph40%29.71 "Hg6 mi
12:00 PM99 °FPartly sunny.6 mph44%29.74 "Hg6 mi
11:00 AM97 °FScattered clouds.5 mph47%29.77 "HgN/A
10:00 AM93 °FScattered clouds.3 mph56%29.80 "HgN/A
9:00 AM91 °FSunny.6 mph56%29.80 "Hg10 mi
8:00 AM88 °FScattered clouds.6 mph62%29.83 "HgN/A
7:00 AM84 °FPassing clouds.5 mph62%29.80 "HgN/A
6:30 AM82 °FPassing clouds.5 mph66%29.80 "HgN/A
6:00 AM82 °FScattered clouds.5 mph66%29.77 "HgN/A
5:00 AM84 °FPassing clouds.3 mph66%29.77 "HgN/A
4:00 AM84 °FPassing clouds.3 mph66%29.74 "HgN/A
3:00 AM82 °FPassing clouds.3 mph70%29.74 "HgN/A
Weather by CustomWeather, © 2015

See weather overviewHow to use our weather pages